Location: Gälforsberget
(66.6500°N, 22.4167°E)
Time: 21:37:12
(UTC+00:00)

Cosmos 1025 Rocket - Pass Details

Date: 11 April 2026
Orbit: 586 x 609 km, 82.5° (Epoch: 16 May)

Event Time Altitude Azimuth Distance (km) Brightness Sun altitude
Rises 20:39:14 0° 341° (NNW) 2,835 8.4 -12.1°
Reaches altitude 10° 20:41:34 10° 333° (NNW) 1,930 7.1 -12.2°
Maximum altitude 20:45:28 36° 267° (W) 940 4.2 -12.4°
Drops below altitude 10° 20:49:21 10° 201° (SSW) 1,920 5.2 -12.5°
Enters shadow 20:49:29 - 200° (SSW) 1,972 5.2 -12.5°
